Location: Julian California
(33.0790°N, 116.6010°W)
Time: 06:40:55
(UTC-07:00)

Cosmos 1151 Rocket - Pass Details

Date: 12 July 2018
Orbit: 591 x 617 km, 82.5° (Epoch: 20 July)

Event Time Altitude Azimuth Distance (km) Brightness Sun altitude
Rises 21:44:17 0° 351° (N) 2,829 7.3 -19.1°
Reaches altitude 10° 21:46:29 10° 350° (N) 1,926 6.4 -19.5°
Maximum altitude 21:50:43 74° 265° (W) 620 3.1 -20.1°
Enters shadow 21:52:16 38° 189° (S) 910 3.6 -20.3°
